This is the latest recevied weather packets stored in our database for station/object F4NFR-13. If no packets are shown the sender has not sent any weather packets the latest 10 day(s).
| Time | Temp. | Humidity | Pressure | Rain* | Wind** | Luminosity | Snow |
|---|---|---|---|---|---|---|---|
| 1777747285 | 17.78° C | 84% | 1014.4 hPa | 0 mm | - | 27 W/m² | - |
| 1777746982 | 17.78° C | 86% | 1014 hPa | 0 mm | - | 38 W/m² | - |
| 1777746680 | 17.78° C | 85% | 1014 hPa | 0 mm | - | 46 W/m² | - |
| 1777746378 | 17.78° C | 85% | 1014 hPa | 0 mm | - | 36 W/m² | - |
| 1777746075 | 17.78° C | 84% | 1014 hPa | 0 mm | - | 35 W/m² | - |
| 1777745470 | 17.78° C | 88% | 1014 hPa | 0 mm | - | 41 W/m² | - |
| 1777745168 | 17.78° C | 88% | 1014 hPa | 0 mm | - | 39 W/m² | - |
| 1777744866 | 17.78° C | 88% | 1014 hPa | 0 mm | - | 38 W/m² | - |
| 1777744564 | 17.78° C | 88% | 1014 hPa | 0 mm | - | 37 W/m² | - |
| 1777744262 | 17.78° C | 87% | 1014 hPa | 0 mm | - | 41 W/m² | - |
| 1777743354 | 17.78° C | 88% | 1014.4 hPa | 0 mm | - | 56 W/m² | - |
| 1777743052 | 17.78° C | 87% | 1014.4 hPa | 0 mm | - | 57 W/m² | - |
| 1777742448 | 17.78° C | 85% | 1014.4 hPa | 0 mm | - | 91 W/m² | - |
| 1777741843 | 17.78° C | 84% | 1014.4 hPa | 0 mm | - | 81 W/m² | - |
| 1777741239 | 17.78° C | 87% | 1014.4 hPa | 0.51 mm | - | 89 W/m² | - |
| 1777740936 | 17.78° C | 87% | 1014.4 hPa | 0.51 mm | - | 75 W/m² | - |
| 1777740634 | 17.78° C | 87% | 1014.4 hPa | 0.51 mm | - | 84 W/m² | - |
| 1777740332 | 17.22° C | 86% | 1014.4 hPa | 0.51 mm | - | 100 W/m² | - |
| 1777740029 | 17.78° C | 87% | 1014.7 hPa | 0.51 mm | - | 97 W/m² | - |
| 1777739727 | 17.78° C | 87% | 1014.7 hPa | 0.51 mm | - | 96 W/m² | - |
| 1777739425 | 17.78° C | 87% | 1014.7 hPa | 0.51 mm | - | 121 W/m² | - |
| 1777739123 | 17.78° C | 86% | 1015 hPa | 0.51 mm | - | 148 W/m² | - |
| 1777738820 | 17.78° C | 86% | 1015 hPa | 0.51 mm | - | 161 W/m² | - |
| 1777738215 | 17.78° C | 83% | 1015.4 hPa | 0.25 mm | - | 22 W/m² | - |
| 1777737913 | 17.78° C | 80% | 1015.4 hPa | 0 mm | - | 16 W/m² | - |
* Rain latest hour (hover to see other rain measurements)
** Current wind speed in m/s (hover to see current wind gust speed)